Victoria, British Columbia

9:55 AM PST on February 21, 2017 (GMT -0800)
Victoria International

Weather History for CYYJ - October, 2011

Change the Weather History Date:

Sunday, October 30, 2011

  Actual Average Record
Temperature  
Mean Temperature 48 °F -  
Max Temperature 58 °F 49 °F 65 °F (2015)
Min Temperature 39 °F 36 °F 28 °F (2002)
Degree Days  
Heating Degree Days 16    
Moisture  
Dew Point 44 °F    
Average Humidity 84    
Maximum Humidity 100    
Minimum Humidity 62    
Precipitation  
Precipitation 0.12 in 0.18 in - ()
Sea Level Pressure  
Sea Level Pressure 30.07 in    
Wind  
Wind Speed 5 mph ()    
Max Wind Speed 17 mph    
Max Gust Speed 28 mph    
Visibility 6.6 miles    
Events Rain    
Averages and records for this station are not official NWS values.
T = Trace of Precipitation, MM = Missing Value Source: Averaged Metar Reports

Daily Weather History Graph

Daily Weather History Graph

Search for Another Location

Airport or City:

Trip Planner

Search our weather history database for the weather conditions in past years. The results will help you decide how hot, cold, wet, or windy it might be!

Date:

Astronomy

Oct. 30, 2011 Rise Set
Actual Time 7:56 AM PDT 5:57 PM PDT
Civil Twilight 7:23 AM PDT 6:29 PM PDT
Nautical Twilight 6:46 AM PDT 7:06 PM PDT
Astronomical Twilight 6:10 AM PDT 7:43 PM PDT
Moon 12:35 PM PDT (10/30) 9:18 PM PDT (10/30)
Length of Visible Light 11h 06m
Length of Day
10h 00m
Waxing Crescent, 21% of the Moon is Illuminated
Oct 30
Waxing Crescent
Nov 2
First Quarter
Nov 10
Full
Nov 18
Last Quarter
Nov 24
New

Hourly Weather History & Observations

Time (PDT) Temp. Windchill Dew Point Humidity Pressure Visibility Wind Dir Wind Speed Gust Speed Precip Events Conditions
12:00 AM 41.0 °F - 39.2 °F 93% 30.18 in 30.0 mi SW 2.3 mph - N/A   Partly Cloudy
1:00 AM 41.0 °F - 39.2 °F 93% 30.15 in 15.0 mi SSW 2.3 mph - N/A   Partly Cloudy
2:00 AM 39.2 °F 35.9 °F 39.2 °F 100% 30.13 in 15.0 mi WSW 4.6 mph - N/A   Mostly Cloudy
3:00 AM 42.8 °F 39.3 °F 41.0 °F 93% 30.09 in 15.0 mi West 5.8 mph - N/A Rain Light Rain
3:23 AM 44.6 °F 40.7 °F - N/A% - 3.0 mi WSW 6.9 mph - N/A Rain Light Rain
3:41 AM 44.6 °F 43.1 °F - N/A% - 1.2 mi SW 3.5 mph - N/A Rain Rain
4:00 AM 44.6 °F - 44.6 °F 100% 30.09 in 3.0 mi West 2.3 mph - N/A Rain Light Rain
4:32 AM 44.6 °F - - N/A% - 1.2 mi West 2.3 mph - N/A Rain Light Rain
5:00 AM 46 °F - 44 °F 91% 30.08 in 1 mi SSW 2.3 mph - - Rain Light Rain
5:00 AM 46.4 °F - 44.6 °F 93% 30.08 in 1.2 mi SSW 2.3 mph - N/A Rain Light Rain
5:18 AM 46.4 °F - - N/A% - 1.2 mi ENE 2.3 mph - N/A Rain Light Rain
6:00 AM 46.4 °F 43.5 °F 44.6 °F 93% 30.05 in 1.2 mi North 5.8 mph - N/A Rain Light Rain
7:00 AM 46.4 °F 43.5 °F 46.4 °F 100% 30.02 in 1.2 mi ENE 5.8 mph - N/A Rain Light Rain
8:00 AM 46.4 °F - 46.4 °F 100% 30.02 in 1.2 mi SSE 2.3 mph - N/A Rain Light Rain
9:00 AM 48.2 °F - 46.4 °F 93% 30.01 in 2.0 mi SE 2.3 mph - N/A Rain Light Rain
9:19 AM 48.2 °F - - N/A% - 5.0 mi SSE 4.6 mph - N/A Rain Light Rain
9:30 AM 48.2 °F - - N/A% - 3.0 mi South 3.5 mph - N/A Rain Light Rain
9:38 AM 48.2 °F - - N/A% - 1.0 mi SSE 3.5 mph - N/A Rain Light Rain
10:00 AM 48.2 °F - 46.4 °F 93% 30.02 in 1.5 mi SSE 4.6 mph - N/A Rain Light Rain
10:09 AM 48.2 °F - - N/A% - 2.0 mi SSE 5.8 mph - N/A Rain Light Rain
10:18 AM 50.0 °F - - N/A% - 5.0 mi SSE 8.1 mph - N/A Rain Light Rain
10:45 AM 50.0 °F - - N/A% - 10.0 mi SSE 10.4 mph 17.3 mph N/A   Mostly Cloudy
11:00 AM 51 °F - 48 °F 85% 30.02 in 12 mi SSW 5.8 mph - - Rain Light Rain
11:00 AM 51.8 °F - 48.2 °F 88% 30.02 in 12.0 mi SSW 5.8 mph - N/A   Mostly Cloudy
12:00 PM 51.8 °F - 48.2 °F 88% 30.04 in 15.0 mi ESE 4.6 mph - N/A   Mostly Cloudy
12:16 PM 51.8 °F - - N/A% - 15.0 mi ESE 6.9 mph - N/A   Mostly Cloudy
12:32 PM 51.8 °F - - N/A% - 15.0 mi ESE 5.8 mph - N/A   Mostly Cloudy
1:00 PM 53.6 °F - 50.0 °F 88% 30.04 in 20.0 mi South 3.5 mph - N/A   Mostly Cloudy
2:00 PM 57.2 °F - 51.8 °F 82% 30.02 in 30.0 mi WSW 3.5 mph - N/A   Mostly Cloudy
3:00 PM 57.2 °F - 50.0 °F 77% 30.02 in 30.0 mi SSW 6.9 mph - N/A   Mostly Cloudy
4:00 PM 57.2 °F - 50.0 °F 77% 30.03 in 30.0 mi SW 9.2 mph - N/A   Mostly Cloudy
5:00 PM 57 °F - 49 °F 68% 30.04 in 28 mi WSW 6.9 mph - -   Scattered Clouds
5:00 PM 57.2 °F - 50.0 °F 77% 30.04 in 30.0 mi WSW 8.1 mph - N/A   Scattered Clouds
6:00 PM 51.8 °F - 39.2 °F 62% 30.05 in 30.0 mi WSW 16.1 mph - N/A   Partly Cloudy
7:00 PM 48.2 °F - 39.2 °F 71% 30.07 in 30.0 mi WSW 17.3 mph 27.6 mph N/A   Partly Cloudy
8:00 PM 48.2 °F - 37.4 °F 66% 30.09 in 30.0 mi West 13.8 mph 20.7 mph N/A   Partly Cloudy
9:00 PM 48.2 °F - 37.4 °F 66% 30.11 in 30.0 mi West 11.5 mph - N/A   Partly Cloudy
10:00 PM 48.2 °F - 39.2 °F 71% 30.14 in 30.0 mi West 10.4 mph - N/A   Partly Cloudy
11:00 PM 47 °F - 38 °F 63% 30.15 in 28 mi West 10.4 mph - -   Clear
11:00 PM 48.2 °F - 39.2 °F 71% 30.15 in 30.0 mi West 11.5 mph - N/A   Partly Cloudy